Other Public Products
Issued by NWS Grand Forks, ND

Home | Current Version | Previous Version | Text Only | Print | Product List | Glossary On
Versions: 1 2 3 4 5 6 7 8 9 10 11 12 13 14 15 16 17 18 19 20 21 22 23 24 25 26 27 28 29 30 31 32 33 34 35 36 37 38 39 40 41 42 43 44 45 46 47 48 49 50
000
FPUS83 KFGF 010531
OPUFGF
PRAIRIE TO PINES WEATHER ROUNDUP
NATIONAL WEATHER SERVICE EASTERN NORTH DAKOTA/GRAND FORKS ND
1200 AM CDT MON MAY 01 2017

 **SATELLITE DATA USED TO AUGMENT SKY COVER AT AUTOMATED STATIONS**
 *****  WEATHER ACROSS EASTERN NORTH DAKOTA  *****

CITY           SKY/WX    TMP DP  RH WIND       PRES   REMARKS
GRAND FORKS    FAIR      48  34  58 NE9       29.84F
GRAND FORKS AF FAIR      40  31  68 NE3       29.85F
GRAND CITY NWS NOT AVBL
BUXTON           N/A     46  29  51 NE8         N/A
DEVILS LAKE    FAIR      45  39  79 CALM      29.86F
FARGO          FAIR      44  25  47 NE5       29.81F
WAHPETON ARPT  FAIR      46  23  39 E10       29.79F
$$

 *****  WEATHER ACROSS CENTRAL AND WESTERN NORTH DAKOTA  *****

CITY           SKY/WX    TMP DP  RH WIND       PRES   REMARKS
JAMESTOWN      FAIR      42  30  62 NE8       29.82F
BISMARCK       FAIR      43  30  60 NE7       29.84F
MINOT          FAIR      47  27  45 SE9       29.81F
MINOT AFB      FAIR      45  30  55 SE9       29.80F
GARRISON         N/A     43  29  57 E6        29.82F
WILLISTON      FAIR      50  33  52 SW7       29.77F
DICKINSON      CLOUDY    44  22  41 SE10      29.80F
HETTINGER      MOCLDY    42  25  50 SE7       29.84S
$$

 *****  OTHER OBSERVATIONS NORTHEAST NORTH DAKOTA  *****

CITY           SKY/WX    TMP DP  RH WIND       PRES   REMARKS
WALHALLA       NOT AVBL
LANGDON        FAIR      39  27  60 SE10      29.87F
CAVALIER       FAIR      45  27  49 E5        29.87F
GRAFTON        FAIR      39  30  70 NE7       29.87F
CANDO          NOT AVBL
FORT TOTTEN      N/A     49  24  37 SE5       29.95S
ROLLA          FAIR      43  27  52 S7        29.85F
RUGBY          NOT AVBL
 ***** THE ABOVE OBSERVATIONS ARE NON NWS ARE NOT QUALITY
        CONTROLLED AND MAY MIS-REPORT RAIN FOR SNOW...
$$

 *****  OTHER OBSERVATIONS SOUTHEAST NORTH DAKOTA *****

CITY           SKY/WX    TMP DP  RH WIND       PRES   REMARKS
COOPERSTOWN    FAIR      43  30  61 NE7       29.83F
VALLEY CITY    FAIR      41  27  56 N6        29.83F
OAKES          NOT AVBL
GWINNER        CLEAR     43  32  65 MISG      29.81S
SHEYENNE NWR     N/A     43  26  51 N2        29.95S
BUFFALO          N/A     44  18  35 SW7         N/A
WYNDMERE         N/A     43  30  61 N5          N/A
 ***** THE ABOVE OBSERVATIONS ARE NON NWS ARE NOT QUALITY
       CONTROLLED AND MAY MIS-REPORT RAIN FOR SNOW...
$$

  *****  WEATHER ACROSS NORTHERN MINNESOTA  *****

CITY           SKY/WX    TMP DP  RH WIND       PRES   REMARKS
FLAG ISLAND    FAIR      46  19  34 E7        29.89F
WARROAD        FAIR      39  34  81 CALM      29.89F
ROSEAU         FAIR      37  30  75 NE6       29.88F
HALLOCK        FAIR      43  25  49 E9        29.87F
THF RVR FALLS  FAIR      44  26  49 NE9       29.86F
HALSTAD          N/A     38  27  64 NE6         N/A
FOSSTON        FAIR      41  21  45 NE3       29.84S
BAUDETTE       FAIR      41  23  48 E5        29.89F
WASKISH        FAIR      43  25  49 E8        29.85F
CROOKSTON      FAIR      45  28  53 NE7       29.85S
$$
  *****  WEATHER ACROSS CENTRAL AND WEST MINNESOTA  *****

CITY           SKY/WX    TMP DP  RH WIND       PRES   REMARKS
BEMIDJI        FAIR      43  25  49 NE7       29.82F
PARK RAPIDS    FAIR      46  19  34 NE9       29.80F
WADENA         FAIR      43  19  39 NE9       29.78F
DETROIT LAKES  FAIR      46  21  36 E7        29.81F
MOORHEAD       FAIR      43  28  56 N6        29.82S
FERGUS FALLS   FAIR      46  21  36 E9        29.79F
ELBOW LAKE     FAIR      46  25  44 NE9G16    29.78F
MORRIS MN      RAIN      39  32  75 NE20G31   29.76F
STAPLES        CLOUDY    43  16  33 NE5       29.79F
WHEATON        MOCLDY    46  27  46 NE6       29.78F
$$
  *****  WEATHER ELSEWHERE ACROSS MINNESOTA  *****

CITY           SKY/WX    TMP DP  RH WIND       PRES   REMARKS
DULUTH         CLOUDY    40  18  41 E20       29.76F
INTRNTL FALLS  FAIR      41  19  41 E6        29.89F
ELY            FAIR      39  16  38 NE3       29.84F
CLOQUET        CLOUDY    39  16  38 NE9G17    29.76F
BRAINERD       CLOUDY    41  16  36 NE18      29.78F
HIBBING        FAIR      41  12  30 NE9G21    29.82F
ALEXANDRIA     CLOUDY    43  20  39 NE15      29.78F
SAINT CLOUD    RAIN      36  32  85 N9        29.73F
MINNEAPOLIS    RAIN      38  35  89 N16G22    29.65F FOG
$$

  *****  WEATHER ACROSS SOUTH DAKOTA  *****

CITY           SKY/WX    TMP DP  RH WIND       PRES   REMARKS
SIOUX FALLS    LGT SNOW  34  32  92 N24G33    29.58F WCI  21
BROOKINGS      MIX PCPN  35  33  92 N18G30    29.66F WCI  24
WATERTOWN      MOCLDY    37  34  89 NE18      29.71F
HURON          CLOUDY    42  35  76 NE10      29.73F
SISSETON         N/A     46  30  53 NE7       29.77F
ABERDEEN       FAIR      42  26  53 N7        29.79F
MITCHELL       LGT RAIN  39  37  92 N22G31    29.70F
PIERRE         FAIR      40  22  48 NE8       29.78F
MOBRIDGE       FAIR      41  19  41 N9        29.79F
RAPID CITY     CLOUDY    45  27  49 N7        29.84F
$$

  *****  SOME WEATHER IN NEARBY STATES *****

CITY           SKY/WX    TMP DP  RH WIND       PRES   REMARKS
GLASGOW MT     CLOUDY    47  42  83 S8        29.79F
GREAT FALLS MT CLOUDY    44  33  65 W15       29.96R
CHEYENNE WY    FAIR      43  24  47 N14         N/A
SCOTTSBLUFF NE FAIR      41  28  60 W5        29.85S
OMAHA NE       LGT RAIN  42  38  85 N13       29.45F FOG
DES MOINES IA  LGT RAIN  46  45  96 E5        29.45S
DAVENPORT IA   CLOUDY    46  45  96 NE7       29.48F
CHICAGO IL     RAIN      47  44  90 N9        29.53S
EAU CLAIRE WI  HVY RAIN  40  37  89 E8        29.63R FOG
LA CROSSE WI   LGT RAIN  41  40  96 CALM      29.66F FOG
$$

  *****  SOME NATIONAL WEATHER *****

CITY           SKY/WX    TMP DP  RH WIND       PRES   REMARKS
LA GUARDIA NY  CLOUDY    52  47  83 E9        30.12F
RALEIGH NC     MOCLDY    71  66  84 S12       30.10S
ATLANTA GA     CLOUDY    69  63  81 S7        29.99F
NEW ORLEANS LA FAIR      68  56  65 W15       29.92R
OKLAHOMA CITY  MOCLDY    43  35  73 W20G26    29.77S
ALBUQUERQUE NM FAIR      55  17  22 N8        30.04R
SALT LAKE CITY MOCLDY    56  39  53 NW9       30.07R
LOS ANGELES CA FAIR      61  50  67 W7        30.00S
BOISE ID       MOCLDY    56  35  45 NW9       30.08R
SEATTLE WA     CLOUDY    49  45  86 S7        30.33R
$$

*** WEATHER ACROSS MANITOBA...SASKATCHEWAN AND ONTARIO ***
                ***ONTARIO***

CITY           SKY/WX    TMP DP  RH WIND       PRES   REMARKS
GERALDTON      MOCLDY    39  12  33 NE7       29.99F
THUNDER BAY    MOCLDY    36  28  75 SW2       29.90F
SIOUX LOOKOUT  CLEAR     43  16  33 E5        29.94F
TORONTO        LGT RAIN  41  41 100 E6        29.88R
BIG TROUT LK   MOCLDY    39  23  52 NE5       29.97R
PICKLE LAKE    NOT AVBL
DRYDEN         CLEAR     37  27  65 NE5       29.92F
KENORA         PTCLDY    45  18  33 E6        29.91F
$$
                *** MANITOBA***

CITY           SKY/WX    TMP DP  RH WIND       PRES   REMARKS
BRANDON        PTCLDY    45  28  53 E7        29.83S
DAUPHIN        PTCLDY    37  36  93 W5        29.81F
ISLAND LAKE    PTCLDY    36  34  93 NW3       29.96F
PILOT MOUND      N/A     36  23  60 SE7         N/A
THE PAS        PTCLDY    37  30  75 E3        29.90S
THOMPSON       CLEAR     36  21  55 E5        29.99S
WINNIPEG       PTCLDY    48  23  37 SE10      29.88F
LYNN LAKE      CLEAR     32  21  64 SE5       29.96S
CHURCHILL      CLOUDY    23  21  93 NE17      30.12R WCI   9
GILLAM         CLEAR     28  21  74 NE2       30.01S
$$
                ***SASKATCHEWAN***

CITY           SKY/WX    TMP DP  RH WIND       PRES   REMARKS
ESTEVAN        MOCLDY    50  36  57 SE9       29.75F
KINDERSLEY     MOCLDY    43  39  87 N7        29.79S
LLOYDMINSTER   LGT RAIN  45  43  93 NE6       29.84R
PRINCE ALBERT  CLOUDY    48  41  76 VRB2      29.81S
REGINA         PTCLDY    48  39  71 E6        29.73F
YORKTON        PTCLDY    48  37  66 S3        29.77F


USA.gov is the U.S. government's official web portal to all federal, state and local government web resources and services.